Voltar ao catálogo

STARLINK-35092

AtivoComunicaçõesVLEO
NORAD 65342·PAYLOAD·🇺🇸 United States

Lançado Aug 27, 2025 de Cape Canaveral Space Force Station

Loading…

Próximas Passagens (próximas 24 horas)

TLE

AtualizadoSource: CelesTrak SupGP

Época: Sep 15, 2026, 03:04 UTC

1 65342C 25189V   26258.12826389 -.00004749  00000+0 -15284-3 0  2583
2 65342  53.1587  45.0950 0001466  84.5862 323.7814 15.31675348    16

Acompanhe STARLINK-35092 em tempo real com AllMySat

Download on the App Store